Time,TemperatureF,DewpointF,PressureIn,WindDirection,WindDirectionDegrees,WindSpeedMPH,WindSpeedGustMPH,Humidity,HourlyPrecipIn,Conditions,Clouds,dailyrainin,SoftwareType,DateUTC
2013-11-28 00:09:00,47.3,35.0,29.91,WSW,252,0.0,1.0,63,0.00,,,0.00,weatherlink.com 1.10,2013-11-28 08:09:00,
2013-11-28 00:24:00,47.7,36.0,29.91,WSW,252,0.0,1.0,63,0.00,,,0.00,weatherlink.com 1.10,2013-11-28 08:24:00,
2013-11-28 00:39:00,48.1,35.0,29.91,WSW,252,0.0,0.0,62,0.00,,,0.00,weatherlink.com 1.10,2013-11-28 08:39:00,
2013-11-28 00:54:00,48.6,36.0,29.91,WSW,252,0.0,0.0,61,0.00,,,0.00,weatherlink.com 1.10,2013-11-28 08:54:00,
2013-11-28 01:09:00,48.2,35.0,29.91,WSW,255,0.0,0.0,61,0.00,,,0.00,weatherlink.com 1.10,2013-11-28 09:09:00,
2013-11-28 01:24:00,48.1,35.0,29.91,WSW,255,0.0,0.0,61,0.00,,,0.00,weatherlink.com 1.10,2013-11-28 09:24:00,
2013-11-28 01:39:00,47.7,35.0,29.91,WSW,255,0.0,1.0,61,0.00,,,0.00,weatherlink.com 1.10,2013-11-28 09:39:00,
2013-11-28 01:54:00,47.9,35.0,29.92,WSW,254,0.0,1.0,61,0.00,,,0.00,weatherlink.com 1.10,2013-11-28 09:54:00,
2013-11-28 02:09:00,47.8,35.0,29.92,West,266,0.0,2.0,62,0.00,,,0.00,weatherlink.com 1.10,2013-11-28 10:09:00,
2013-11-28 02:24:00,48.9,35.0,29.92,West,264,1.0,1.0,59,0.00,,,0.00,weatherlink.com 1.10,2013-11-28 10:24:00,
2013-11-28 02:39:00,49.1,35.0,29.92,West,269,0.0,1.0,58,0.00,,,0.00,weatherlink.com 1.10,2013-11-28 10:39:00,
2013-11-28 02:54:00,48.6,35.0,29.92,WSW,252,0.0,1.0,59,0.00,,,0.00,weatherlink.com 1.10,2013-11-28 10:54:00,
2013-11-28 03:09:00,48.6,34.0,29.92,WNW,302,0.0,1.0,58,0.00,,,0.00,weatherlink.com 1.10,2013-11-28 11:09:00,
2013-11-28 03:24:00,49.5,34.0,29.92,West,281,0.0,1.0,56,0.00,,,0.00,weatherlink.com 1.10,2013-11-28 11:24:00,
2013-11-28 03:39:00,49.0,34.0,29.92,WNW,283,0.0,1.0,57,0.00,,,0.00,weatherlink.com 1.10,2013-11-28 11:39:00,
2013-11-28 03:55:00,49.9,34.0,29.92,WSW,253,1.0,3.0,55,0.00,,,0.00,weatherlink.com 1.10,2013-11-28 11:55:00,
2013-11-28 04:10:00,50.8,34.0,29.92,West,272,0.0,2.0,53,0.00,,,0.00,weatherlink.com 1.10,2013-11-28 12:10:00,
2013-11-28 04:25:00,50.5,34.0,29.92,West,276,0.0,1.0,53,0.00,,,0.00,weatherlink.com 1.10,2013-11-28 12:25:00,
2013-11-28 04:40:00,50.7,34.0,29.93,West,276,0.0,1.0,53,0.00,,,0.00,weatherlink.com 1.10,2013-11-28 12:40:00,
2013-11-28 04:55:00,50.4,34.0,29.93,West,277,0.0,1.0,53,0.00,,,0.00,weatherlink.com 1.10,2013-11-28 12:55:00,
2013-11-28 05:10:00,48.7,33.0,29.93,West,276,0.0,0.0,56,0.00,,,0.00,weatherlink.com 1.10,2013-11-28 13:10:00,
2013-11-28 05:25:00,49.3,34.0,29.93,West,270,0.0,0.0,55,0.00,,,0.00,weatherlink.com 1.10,2013-11-28 13:25:00,
2013-11-28 05:40:00,49.5,34.0,29.93,West,270,0.0,0.0,55,0.00,,,0.00,weatherlink.com 1.10,2013-11-28 13:40:00,
2013-11-28 05:55:00,50.2,33.0,29.93,West,270,0.0,0.0,53,0.00,,,0.00,weatherlink.com 1.10,2013-11-28 13:55:00,
2013-11-28 06:10:00,50.0,34.0,29.93,West,269,0.0,0.0,54,0.00,,,0.00,weatherlink.com 1.10,2013-11-28 14:10:00,
2013-11-28 06:25:00,49.9,34.0,29.94,WSW,249,0.0,0.0,54,0.00,,,0.00,weatherlink.com 1.10,2013-11-28 14:25:00,
2013-11-28 06:40:00,50.5,34.0,29.94,WSW,249,0.0,0.0,53,0.00,,,0.00,weatherlink.com 1.10,2013-11-28 14:40:00,
2013-11-28 06:55:00,50.6,33.0,29.95,West,264,0.0,0.0,52,0.00,,,0.00,weatherlink.com 1.10,2013-11-28 14:55:00,
2013-11-28 07:10:00,51.0,34.0,29.95,West,264,0.0,0.0,52,0.00,,,0.00,weatherlink.com 1.10,2013-11-28 15:10:00,
2013-11-28 07:25:00,51.6,33.0,29.95,West,264,0.0,0.0,50,0.00,,,0.00,weatherlink.com 1.10,2013-11-28 15:25:00,
2013-11-28 07:40:00,51.6,34.0,29.96,West,264,0.0,0.0,51,0.00,,,0.00,weatherlink.com 1.10,2013-11-28 15:40:00,
2013-11-28 07:55:00,51.6,35.0,29.96,West,263,0.0,1.0,53,0.00,,,0.00,weatherlink.com 1.10,2013-11-28 15:55:00,
2013-11-28 08:10:00,53.3,35.0,29.97,West,262,0.0,0.0,51,0.00,,,0.00,weatherlink.com 1.10,2013-11-28 16:10:00,
2013-11-28 08:25:00,55.2,38.0,29.97,SSW,203,0.0,1.0,53,0.00,,,0.00,weatherlink.com 1.10,2013-11-28 16:25:00,
2013-11-28 08:40:00,55.9,37.0,29.97,SSW,204,0.0,0.0,49,0.00,,,0.00,weatherlink.com 1.10,2013-11-28 16:40:00,
2013-11-28 08:55:00,57.1,36.0,29.97,NE,41,1.0,2.0,45,0.00,,,0.00,weatherlink.com 1.10,2013-11-28 16:55:00,
2013-11-28 09:10:00,57.9,35.0,29.98,East,84,0.0,2.0,42,0.00,,,0.00,weatherlink.com 1.10,2013-11-28 17:10:00,
2013-11-28 09:25:00,58.5,35.0,29.98,North,4,1.0,2.0,42,0.00,,,0.00,weatherlink.com 1.10,2013-11-28 17:25:00,
2013-11-28 09:40:00,60.0,36.0,29.98,North,354,3.0,3.0,41,0.00,,,0.00,weatherlink.com 1.10,2013-11-28 17:40:00,
2013-11-28 09:55:00,60.1,35.0,29.98,NNW,327,0.0,3.0,39,0.00,,,0.00,weatherlink.com 1.10,2013-11-28 17:55:00,
2013-11-28 10:10:00,61.5,35.0,29.99,NNE,12,1.0,3.0,38,0.00,,,0.00,weatherlink.com 1.10,2013-11-28 18:10:00,
2013-11-28 10:25:00,61.8,36.0,29.99,North,359,0.0,3.0,38,0.00,,,0.00,weatherlink.com 1.10,2013-11-28 18:25:00,
2013-11-28 10:40:00,62.9,35.0,29.99,East,84,0.0,4.0,36,0.00,,,0.00,weatherlink.com 1.10,2013-11-28 18:40:00,
2013-11-28 10:56:00,63.5,37.0,29.99,NNE,15,0.0,4.0,37,0.00,,,0.00,weatherlink.com 1.10,2013-11-28 18:56:00,
2013-11-28 11:11:00,64.5,37.0,29.99,North,6,1.0,5.0,36,0.00,,,0.00,weatherlink.com 1.10,2013-11-28 19:11:00,
2013-11-28 11:26:00,65.0,35.0,29.98,East,96,0.0,4.0,33,0.00,,,0.00,weatherlink.com 1.10,2013-11-28 19:26:00,
2013-11-28 11:41:00,65.8,35.0,29.98,NW,316,0.0,4.0,32,0.00,,,0.00,weatherlink.com 1.10,2013-11-28 19:41:00,
2013-11-28 11:56:00,66.3,35.0,29.98,ESE,104,0.0,2.0,32,0.00,,,0.00,weatherlink.com 1.10,2013-11-28 19:56:00,
2013-11-28 12:11:00,67.1,35.0,29.98,SE,139,0.0,3.0,30,0.00,,,0.00,weatherlink.com 1.10,2013-11-28 20:11:00,
2013-11-28 12:26:00,67.3,35.0,29.98,SE,139,1.0,3.0,30,0.00,,,0.00,weatherlink.com 1.10,2013-11-28 20:26:00,
2013-11-28 12:41:00,67.6,34.0,29.97,ESE,117,2.0,4.0,29,0.00,,,0.00,weatherlink.com 1.10,2013-11-28 20:41:00,
2013-11-28 12:56:00,67.2,34.0,29.97,NNW,340,3.0,3.0,29,0.00,,,0.00,weatherlink.com 1.10,2013-11-28 20:56:00,
2013-11-28 13:11:00,67.4,34.0,29.97,ESE,114,0.0,4.0,29,0.00,,,0.00,weatherlink.com 1.10,2013-11-28 21:11:00,
2013-11-28 13:26:00,67.5,34.0,29.97,SE,132,0.0,3.0,29,0.00,,,0.00,weatherlink.com 1.10,2013-11-28 21:26:00,
2013-11-28 13:41:00,67.0,34.0,29.97,South,170,1.0,3.0,30,0.00,,,0.00,weatherlink.com 1.10,2013-11-28 21:41:00,
2013-11-28 13:56:00,67.4,34.0,29.97,NNW,337,0.0,2.0,29,0.00,,,0.00,weatherlink.com 1.10,2013-11-28 21:56:00,
2013-11-28 14:11:00,66.5,33.0,29.97,ESE,121,0.0,1.0,29,0.00,,,0.00,weatherlink.com 1.10,2013-11-28 22:11:00,
2013-11-28 14:26:00,66.4,34.0,29.97,SE,137,0.0,2.0,30,0.00,,,0.00,weatherlink.com 1.10,2013-11-28 22:26:00,
2013-11-28 14:41:00,66.4,34.0,29.97,SE,129,1.0,3.0,30,0.00,,,0.00,weatherlink.com 1.10,2013-11-28 22:41:00,
2013-11-28 14:56:00,66.0,34.0,29.98,SE,141,1.0,6.0,30,0.00,,,0.00,weatherlink.com 1.10,2013-11-28 22:56:00,
2013-11-28 15:11:00,65.5,34.0,29.98,ESE,113,0.0,3.0,31,0.00,,,0.00,weatherlink.com 1.10,2013-11-28 23:11:00,
2013-11-28 15:26:00,64.8,33.0,29.98,West,263,0.0,1.0,31,0.00,,,0.00,weatherlink.com 1.10,2013-11-28 23:26:00,
2013-11-28 15:41:00,63.4,34.0,29.98,West,263,0.0,0.0,33,0.00,,,0.00,weatherlink.com 1.10,2013-11-28 23:41:00,
2013-11-28 15:56:00,62.2,33.0,29.98,NW,312,0.0,1.0,34,0.00,,,0.00,weatherlink.com 1.10,2013-11-28 23:56:00,
2013-11-28 16:11:00,61.5,33.0,29.99,NW,312,0.0,1.0,35,0.00,,,0.00,weatherlink.com 1.10,2013-11-29 00:11:00,
2013-11-28 16:27:00,60.0,33.0,29.99,NW,312,0.0,0.0,37,0.00,,,0.00,weatherlink.com 1.10,2013-11-29 00:27:00,
2013-11-28 16:41:00,59.6,33.0,29.99,NW,312,0.0,1.0,37,0.00,,,0.00,weatherlink.com 1.10,2013-11-29 00:41:00,
2013-11-28 16:56:00,58.6,35.0,30.00,NW,310,0.0,0.0,41,0.00,,,0.00,weatherlink.com 1.10,2013-11-29 00:56:00,
2013-11-28 17:11:00,57.3,35.0,30.00,NW,309,0.0,0.0,43,0.00,,,0.00,weatherlink.com 1.10,2013-11-29 01:11:00,
2013-11-28 17:26:00,57.2,35.0,30.01,NW,305,0.0,0.0,44,0.00,,,0.00,weatherlink.com 1.10,2013-11-29 01:26:00,
2013-11-28 17:41:00,56.6,36.0,30.02,West,266,0.0,0.0,46,0.00,,,0.00,weatherlink.com 1.10,2013-11-29 01:41:00,
2013-11-28 17:56:00,55.8,37.0,30.02,West,263,0.0,0.0,49,0.00,,,0.00,weatherlink.com 1.10,2013-11-29 01:56:00,
2013-11-28 18:11:00,55.5,37.0,30.02,West,263,0.0,0.0,50,0.00,,,0.00,weatherlink.com 1.10,2013-11-29 02:11:00,
2013-11-28 18:26:00,54.3,36.0,30.03,West,263,0.0,0.0,50,0.00,,,0.00,weatherlink.com 1.10,2013-11-29 02:26:00,
2013-11-28 18:41:00,54.2,36.0,30.03,WSW,256,1.0,2.0,51,0.00,,,0.00,weatherlink.com 1.10,2013-11-29 02:41:00,
2013-11-28 18:56:00,53.3,37.0,30.04,WSW,256,0.0,1.0,54,0.00,,,0.00,weatherlink.com 1.10,2013-11-29 02:56:00,
2013-11-28 19:11:00,52.4,37.0,30.04,WSW,256,0.0,1.0,56,0.00,,,0.00,weatherlink.com 1.10,2013-11-29 03:11:00,
2013-11-28 19:26:00,51.7,37.0,30.05,WSW,256,0.0,0.0,57,0.00,,,0.00,weatherlink.com 1.10,2013-11-29 03:26:00,
2013-11-28 19:41:00,51.8,36.0,30.05,WSW,256,0.0,0.0,56,0.00,,,0.00,weatherlink.com 1.10,2013-11-29 03:41:00,
2013-11-28 19:56:00,53.0,37.0,30.06,WSW,256,0.0,0.0,54,0.00,,,0.00,weatherlink.com 1.10,2013-11-29 03:56:00,
2013-11-28 20:11:00,53.5,36.0,30.06,WSW,256,0.0,0.0,52,0.00,,,0.00,weatherlink.com 1.10,2013-11-29 04:11:00,
2013-11-28 20:26:00,52.8,36.0,30.07,WSW,256,0.0,0.0,53,0.00,,,0.00,weatherlink.com 1.10,2013-11-29 04:26:00,
2013-11-28 20:41:00,53.7,36.0,30.07,WSW,256,0.0,0.0,52,0.00,,,0.00,weatherlink.com 1.10,2013-11-29 04:41:00,
2013-11-28 20:56:00,53.7,37.0,30.07,WSW,256,0.0,0.0,53,0.00,,,0.00,weatherlink.com 1.10,2013-11-29 04:56:00,
2013-11-28 21:11:00,54.1,36.0,30.07,WSW,256,0.0,0.0,50,0.00,,,0.00,weatherlink.com 1.10,2013-11-29 05:11:00,
2013-11-28 21:26:00,54.2,36.0,30.08,WSW,255,0.0,0.0,51,0.00,,,0.00,weatherlink.com 1.10,2013-11-29 05:26:00,
2013-11-28 21:41:00,53.9,36.0,30.08,WSW,256,0.0,0.0,51,0.00,,,0.00,weatherlink.com 1.10,2013-11-29 05:41:00,
2013-11-28 21:56:00,52.8,36.0,30.08,WSW,256,0.0,0.0,53,0.00,,,0.00,weatherlink.com 1.10,2013-11-29 05:56:00,
2013-11-28 22:11:00,53.0,36.0,30.08,WSW,256,0.0,0.0,53,0.00,,,0.00,weatherlink.com 1.10,2013-11-29 06:11:00,
2013-11-28 22:26:00,52.7,36.0,30.08,WSW,256,0.0,0.0,53,0.00,,,0.00,weatherlink.com 1.10,2013-11-29 06:26:00,
2013-11-28 22:42:00,52.6,36.0,30.09,WSW,256,0.0,0.0,54,0.00,,,0.00,weatherlink.com 1.10,2013-11-29 06:42:00,
2013-11-28 22:57:00,52.2,36.0,30.09,WSW,256,0.0,0.0,54,0.00,,,0.00,weatherlink.com 1.10,2013-11-29 06:57:00,
2013-11-28 23:12:00,51.6,36.0,30.09,WSW,256,0.0,0.0,56,0.00,,,0.00,weatherlink.com 1.10,2013-11-29 07:12:00,
2013-11-28 23:27:00,51.2,36.0,30.09,WSW,256,0.0,0.0,57,0.00,,,0.00,weatherlink.com 1.10,2013-11-29 07:27:00,
2013-11-28 23:42:00,50.8,36.0,30.10,WSW,256,0.0,0.0,57,0.00,,,0.00,weatherlink.com 1.10,2013-11-29 07:42:00,
2013-11-28 23:57:00,50.5,36.0,30.10,WSW,256,0.0,0.0,59,0.00,,,0.00,weatherlink.com 1.10,2013-11-29 07:57:00,